This demonstration page uses our WeatherBlox Daily Observations layout. Learn more.

Left ArrowRight Arrow

40.92945, -100.16068

Hourly Observations for July 8, 2019

Temp ( °F °C ) Dew Point ( °F °C ) Humidity (%) Winds ( mph kmh ) Pressure ( in mb ) Visibility ( mi km ) Precip ( " mm )
12:15 am 00:15 Clear 71 21.5 67 19.4 88 88 SE 8 13 29.92 1013 10 16 N/A
12:35 am 00:35 Clear 70 21.1 67 19.3 90 90 SE 8 13 29.92 1013 10 16 N/A
12:55 am 00:55 Clear 70 21 67 19.2 90 90 SE 6 9 29.92 1013 10 16 N/A
1:15 am 01:15 Clear 69 20.5 66 19.1 92 92 SSE 7 11 29.93 1013 10 16 N/A
1:35 am 01:35 Clear 68 20.2 66 19 93 93 SSE 8 13 29.93 1014 10 16 N/A
1:55 am 01:55 Clear 69 20.3 66 19 92 92 SSE 7 11 29.93 1014 10 16 N/A
2:15 am 02:15 Clear 68 20.1 66 18.9 93 93 SSE 7 11 29.92 1013 10 16 N/A
2:35 am 02:35 Clear 69 20.3 66 19 92 92 SSE 9 15 29.91 1013 10 16 N/A
2:55 am 02:55 Clear 69 20.5 66 19 91 91 SSE 8 13 29.92 1013 10 16 N/A
3:15 am 03:15 Clear 69 20.5 66 19 91 91 SSE 9 15 29.91 1013 10 16 N/A
3:35 am 03:35 Clear 68 20.1 66 18.8 92 92 SSE 7 11 29.91 1013 10 16 N/A
3:55 am 03:55 Clear 68 20 66 18.8 93 93 SSE 7 11 29.90 1013 10 16 N/A
4:15 am 04:15 Clear 67 19.6 66 18.7 95 95 SSE 7 11 29.91 1013 10 16 N/A
4:35 am 04:35 Clear 67 19.7 66 18.8 95 95 SSE 7 11 29.89 1012 10 16 N/A
4:55 am 04:55 Clear 68 20 66 18.8 93 93 SSE 7 11 29.88 1012 10 16 N/A
5:15 am 05:15 Clear 67 19.5 66 18.7 95 95 SSE 5 7 29.89 1012 10 16 N/A
5:35 am 05:35 Clear 67 19.3 65 18.6 96 96 SSE 5 7 29.89 1012 10 16 N/A
5:55 am 05:55 Clear 66 19.1 65 18.6 97 97 S 6 9 29.89 1012 10 16 N/A
6:15 am 06:15 Clear 67 19.2 65 18.6 96 96 SE 3 6 29.89 1012 10 16 N/A
6:35 am 06:35 Sunny 67 19.5 66 18.9 96 96 SSE 6 9 29.90 1012 10 16 N/A
6:55 am 06:55 Sunny 68 20.1 67 19.2 95 95 SE 8 13 29.88 1012 10 16 N/A
7:15 am 07:15 Sunny 69 20.5 67 19.3 93 93 SE 8 13 29.88 1012 10 16 N/A
7:35 am 07:35 Sunny 69 20.8 67 19.5 92 92 SE 7 11 29.88 1012 10 16 N/A
7:55 am 07:55 Sunny 69 20.7 67 19.6 93 93 SE 6 9 29.89 1012 10 16 N/A
8:15 am 08:15 Sunny 69 20.6 67 19.6 94 94 SE 7 11 29.89 1012 10 16 N/A
8:35 am 08:35 Sunny 69 20.8 68 19.9 95 95 SSE 8 13 29.90 1012 10 16 N/A
8:55 am 08:55 Sunny 70 21.3 68 20.1 93 93 SSE 9 15 29.89 1012 10 16 N/A
9:15 am 09:15 Sunny 71 21.8 69 20.4 92 92 SSE 8 13 29.89 1012 10 16 N/A
9:35 am 09:35 Sunny 73 22.5 69 20.5 89 89 SSE 7 11 29.88 1012 10 16 N/A
9:55 am 09:55 Sunny 73 22.9 69 20.6 87 87 SSE 9 15 29.88 1012 10 16 N/A
10:15 am 10:15 Sunny 73 23 69 20.6 86 86 SSE 9 15 29.88 1012 10 16 N/A
10:35 am 10:35 Mostly Cloudy 73 23 69 20.7 87 87 SSE 7 11 29.88 1012 10 16 N/A
10:55 am 10:55 Mostly Cloudy 74 23.2 69 20.8 86 86 SSE 6 9 29.87 1012 10 16 N/A
11:15 am 11:15 Partly Cloudy 74 23.5 70 21.1 86 86 SSE 6 9 29.86 1011 10 16 N/A
11:35 am 11:35 Partly Cloudy 75 23.7 70 20.9 84 84 SSE 8 13 29.87 1012 10 16 N/A
11:55 am 11:55 Mostly Cloudy 76 24.3 70 21.2 83 83 SSE 9 15 29.86 1011 10 16 N/A
12:15 pm 12:15 Mostly Cloudy 77 25 70 21.1 79 79 SSE 13 20 29.85 1011 10 16 N/A
12:35 pm 12:35 Mostly Cloudy 77 25.2 70 21 78 78 SSE 13 20 29.85 1011 10 16 N/A
12:55 pm 12:55 Cloudy 78 25.5 71 21.4 78 78 SSE 14 22 29.84 1010 10 16 N/A
1:15 pm 13:15 Cloudy 79 26 71 21.8 78 78 SE 13 20 29.83 1010 10 16 N/A
1:35 pm 13:35 Mostly Cloudy 79 26.2 72 22 78 78 SE 13 20 29.81 1009 10 16 N/A
1:55 pm 13:55 Cloudy 81 27 71 21.7 73 73 SE 16 26 29.79 1009 10 16 N/A
2:15 pm 14:15 Mostly Cloudy 82 27.7 72 22 71 71 SSE 21 33 29.77 1008 10 16 N/A
2:35 pm 14:35 Mostly Cloudy 80 26.6 70 21 71 71 SE 17 28 29.77 1008 10 16 N/A
2:55 pm 14:55 Mostly Cloudy 80 26.5 70 21.2 73 73 SE 14 22 29.76 1008 10 16 N/A
3:15 pm 15:15 Mostly Cloudy with Thunderstorms 80 26.5 71 21.5 74 74 SE 15 24 29.75 1007 10 16 N/A
3:35 pm 15:35 Partly Cloudy with Thunderstorms 79 26.3 70 21 73 73 SE 17 28 29.73 1007 10 16 N/A
3:55 pm 15:55 Cloudy with Strong Thunderstorms 72 22.3 67 19.3 83 83 SE 24 39 29.80 1009 2 3 0.15 3.81
4:15 pm 16:15 Cloudy with Thunderstorms 69 20.3 67 19.4 95 95 E 15 24 29.80 1009 10 16 N/A
4:35 pm 16:35 Cloudy with Nearby Thunderstorms 68 20.2 67 19.3 95 95 N 13 20 29.80 1009 10 16 N/A
4:55 pm 16:55 Cloudy 69 20.3 68 20 98 98 NW 22 35 29.81 1009 1 2 0.26 6.60
5:15 pm 17:15 Cloudy with Strong Thunderstorms 69 20.3 67 19.5 95 95 W 8 13 29.84 1010 1 1 0.79 20.07
5:35 pm 17:35 Cloudy 67 19.5 67 19.5 100 100 ENE 12 19 29.83 1010 0 0 1.81 45.97
5:55 pm 17:55 Cloudy 67 19.4 67 19.3 99 99 E 9 15 29.81 1009 1 1 2.36 59.94
6:15 pm 18:15 Cloudy with Strong Thunderstorms 67 19.6 66 18.9 96 96 SSE 14 22 29.81 1009 2 3 0.22 5.59
6:35 pm 18:35 Cloudy with Heavy Rain 66 19.1 66 18.7 98 98 ESE 3 6 29.80 1009 1 2 0.64 16.26
6:55 pm 18:55 Cloudy with Nearby Thunderstorms 66 19 66 18.8 99 99 ESE 14 22 29.79 1009 3 4 0.80 20.32
7:15 pm 19:15 Cloudy with Strong Thunderstorms 67 19.3 67 19.3 100 100 E 17 28 29.79 1009 1 1 0.34 8.64
7:35 pm 19:35 Mostly Cloudy with Nearby Thunderstorms 66 19 65 18.6 98 98 E 13 20 29.80 1009 10 16 0.34 8.64
7:55 pm 19:55 Mostly Cloudy with Nearby Thunderstorms 66 18.8 65 18.6 99 99 E 13 20 29.81 1010 10 16 0.34 8.64
8:15 pm 20:15 Partly Cloudy with Light Rain 65 18.6 65 18.3 98 98 E 15 24 29.80 1009 10 16 N/A
8:35 pm 20:35 Mostly Cloudy 65 18.6 65 18.2 98 98 E 14 22 29.81 1010 10 16 0.01 0.25
8:55 pm 20:55 Cloudy with Nearby Thunderstorms 66 18.7 64 18 96 96 ESE 8 13 29.83 1010 10 16 0.01 0.25
9:15 pm 21:15 Cloudy 65 18.5 65 18.2 98 98 NNE 13 20 29.85 1011 3 5 0.33 8.38
9:35 pm 21:35 Cloudy with Nearby Thunderstorms 65 18.6 65 18.1 97 97 ENE 15 24 29.83 1010 5 8 0.48 12.19
9:55 pm 21:55 Cloudy with Strong Thunderstorms 65 18.6 64 18 96 96 ESE 12 19 29.84 1011 3 5 0.72 18.29
10:15 pm 22:15 Cloudy 65 18.3 65 18.2 99 99 ESE 17 28 29.81 1009 3 4 0.22 5.59
10:35 pm 22:35 Cloudy with Thunderstorms 65 18.5 65 18.2 98 98 ESE 18 30 29.78 1008 5 8 0.30 7.62
10:55 pm 22:55 Partly Cloudy with Thunderstorms 66 18.8 65 18.2 96 96 E 17 28 29.76 1008 10 16 0.31 7.87
11:15 pm 23:15 Partly Cloudy with Nearby Thunderstorms 66 19.1 65 18.1 94 94 ESE 12 19 29.77 1008 10 16 N/A
11:35 pm 23:35 Cloudy with Nearby Thunderstorms 66 19.1 65 18.1 94 94 NNW 21 33 29.84 1010 10 16 N/A
11:55 pm 23:55 Cloudy with Strong Thunderstorms 66 18.7 64 18 96 96 NNW 10 17 29.90 1013 2 3 0.37 9.40

Powered by AerisWeather